星链-1876 (STARLINK-1876 )

导读 | 豆包AI

STARLINK-1876是美国太空探索技术公司(SpaceX)星链星座的成员,于2020年11月25日在美国发射升空,属于星链星座低轨互联网卫星组网的一环。星链星座旨在构建全球卫星互联网,为全球用户提供高速宽带网络服务,该卫星入轨后承担部分全球通信覆盖的任务。

基本信息
目录编号:
47161
目录名称:
STARLINK-1876
国际标识:
2020-088AR
轨道中心:
EARTH
卫星名称:
星链-1876
卫星全名:
星链-1876 (STARLINK-1876 )
卫星状态:
在轨 (已飞行1982 天)
发射日期:
2020-11-25 UTC
国别 :
美国 (US)
星等 :
--
轨道信息
数据来源 国际轨道数据
星历时间: 2026-04-30T11:51:15+0800
6小时前
查看轨道信息
半长轴: 6722.856km
偏心率: 0.0005614
轨道倾角: 53.049°
近地点辐角 152.316°
升交点赤经 17.547°
平近点角 207.816°
近地点: 340.944km
远地点: 348.494km
周期: 91.430分钟
每日圈数: 15.749692
详细信息
固有亮度:
5
最大亮度:
2.5
卫星平台:
Starlink V1.0
覆盖范围:
全球
运营商:
太空探索技术公司
运营商所在国:
美国
制造商(研发单位):
太空探索技术公司
制造商所在国:
美国
使用方式:
暂无
卫星简介
星链(Starlink)计划是由太空探索技术公司(SpaceX)提出的一个巨型低轨卫星互联网星座项目,计划在2019年至2024年间在太空搭建由约1.2万颗卫星组成的“星链”网络,其中1584颗将部署在地球上空550千米处的近地轨道,并从2020年开始工作。该卫星仍在工作。
2D轨道图
3D轨道图
轨道高度分析图
轨道倾角分析图
轨道综合分析图
查看轨道综合分析图